STARLINK-34322, 64702

Orbit data source: Space-Track

STARLINK-34322, 64702 is a payload satellite owned by SpaceX/Seattle (US) in LEO that was launched on Sat, 28 Jun 2025 UTC via an FALCON 9 launch vehicle from the Air Force Western Test Range (AFWTR). Payload-class satellites include a variety of spacecraft equipped with specific instruments for various scientific and technological missions. These include communications satellites like Starlink; space stations such as the ISS; scientific satellites like the Hubble; Earth observation satellites from companies like Planet Labs, Umbra, and HawkEye 360; GPS; miniature CubeSats for education and research; and military/defense satellites.

Loading next visibility...
Identifier
64702, 2025-142G
Orbit
LEO
Country
Flag of USUS
Related business
Manufacturer
SpaceX/Seattle
Mission
Operational Commercial Communications
Bus & Motor
STARLINK V2MO, Unknown motor
Mass
575 kg wet, ~530 kg dry
Launch date (UTC)
2025-06-28 (1 year ago)
Launch vehicle
FALCON 9
Launch site
Air Force Western Test Range (AFWTR)
Object type
Payload
Rocket body
Debris
Shape & HBR
Box + 1 Pan, 17.7 m
Radar Cross Section
41.120 m², Large (>1 m²)

Expand to show TLE details & history
Last TLE update: 12 hours ago

TLE from 12 hours ago
0 STARLINK-34322
1 64702U 25142G   26264.20072943  .00009854  00000-0  34676-3 0  9995
2 64702  70.0053 179.1969 0002286 351.8040   8.3098 15.29583006 68985
Epoch: 2026-09-21T04:49Z
TLE epoch observation values (Epoch: 2026-09-21T04:49:03.022Z)
Latitude
0.00001°
Longitude
106.85035°
Altitude
477.965 km
Speed
7.628 km/s
True Right ascension
11h 56m 47s
True Declination
0° 00' 00"
Sunlit
Object was in daylight at epoch
Visualization orbit readout
Latitude
Unknown
Longitude
Unknown
Altitude
Unknown
Speed
Unknown
Apparent Right ascension
Unknown
Apparent Declination
Unknown
Sunlit
N/A
Visualization observer readout
Local Sidereal Time
09:56:45
Azimuth
Unknown
Elevation
Unknown
Doppler factor
Unknown
Orbital elements
Apogee altitude
476.544 km
Perigee altitude
473.41 km
Semi-major axis
6,853.114 km
Eccentricity
0.00023
Inclination
70.0053°
RAAN
179.1969°
Arg. of periapsis
351.804°
True anomaly
8.31359°
Mean anomaly
8.3098°
Eccentric anomaly
8.31169°
Mean motion
3.8257 °/min
Orbital period
94.1 mins
BSTAR
0.00034676
Loading maneuver chart data...
Computing Atmospheric mass density...
Loading historical data...
Loading historical data...
Loading historical data...
Loading historical data...
Loading historical data...
Loading historical data...
Loading historical data...

Documentation

Showing up to 5 results
|